Regional Weather Roundup
Issued by NWS Goodland, KS

Home | Current Version | Previous Version | Text Only | Print | Product List | Glossary Off
Versions: 1 2 3 4 5 6 7 8 9 10 11 12 13 14 15 16 17 18 19 20 21 22 23 24 25 26 27 28 29 30 31 32 33 34 35 36 37 38 39 40 41 42 43 44 45 46 47 48 49 50

000
ASUS43 KGLD 032259
RWRGLD

GOODLAND FORECAST AREA HOURLY WEATHER ROUNDUP
NATIONAL WEATHER SERVICE GOODLAND KS
500 PM MDT SUN MAY 03 2015

...OFFICIAL OBSERVATIONS...

CITY           SKY/WX    TMP DP  RH WIND       PRES   REMARKS
GOODLAND KS    PTSUNNY   82  38  20 N5        29.85S
HILL CITY KS   MOSUNNY   85  48  27 S9        29.76S
IMPERIAL NEB   SUNNY     78  40  25 NE17      29.85S
MCCOOK NEB     PTSUNNY   87  44  22 N21       29.78R
AKRON CO       MOSUNNY   72  38  29 NE14      29.93R
BURLINGTON CO  MOSUNNY   79  37  22 NE6       29.88F
LIMON CO       LGT RAIN  68  29  23 VRB7G21   29.98R
$$

...UNOFFICIAL OBSERVATIONS...

CITY           SKY/WX    TMP DP  RH WIND       PRES   REMARKS
COLBY KS       SUNNY     84  43  23 N3        29.82F
GOVE KS          N/A     86  32  14 MISG        N/A
LENORA KS        N/A     86  32  14 MISG        N/A
NORTON KS      SUNNY     88  27  11 W9        29.75S
SHARON SPRINGS   N/A     82  45  26 MISG        N/A
KIT CARSON CO    N/A     77  40  26 MISG        N/A
YUMA CO          N/A     77  36  23 N8          N/A
$$



USA.gov is the U.S. government's official web portal to all federal, state and local government web resources and services.